1st Responders/1st Detectors/Storm Spotters Weather Summary for Allen County, KY

Forecast Maps


Reg. NEXRAD Animation


National Fire Danger: Day 1 & 2 Map

Current NWS Watch/Warnings

SPC Convective Day 1 Outlook


Day 2 Outlook

(Click images to enlarge|Page will refresh every 5 minutes)
UK Ag. Weather Center Desktop Severe Weather Service[HERE]
Allen County, KY Hazardous Weather Outlook Webcast
(9 AM to 9 PM Mon-Fri)
[Fast]
[Dial-up]


UKAWC 1st Detectors/1st Responders Precision Weather Forecast For ALLEN County, Kentucky
(based on the NWS County Digital Forecast)

ISSUED AT 06:00 UTC ON SUNDAY DEC 17 2017
DAY SUNDAY
CDT 3HR 2A 3A 4A 5A 6A 7A 8A 9A 10A 11A NOON 1P 2P 3P 4P 5P 6P
MAX/MIN -- -- -- -- -- 34° -- -- -- -- -- -- -- -- -- -- 47°
TEMP 36° 34° 34° 36° 36° 38° 38° 40° 40° 41° 43° 45° 47° 47° 47° 47° 45°
SKY COVER 63% 69% 75% 81% 88% 94% 96% 98% 100% 99% 98% 97% 98% 99% 100% 100% 100%
Clouds
DEW PT 29° 29° 29° 29° 29° 29° 29° 31° 31° 32° 34° 34° 36° 38° 38° 38° 38°
RH 78% 81% 81% 78% 75% 72% 70% 70% 69% 70% 68% 67% 65% 67% 70% 74% 79%
POP 12HR -- -- -- -- -- 7% -- -- -- -- -- -- -- -- -- -- --
RAIN/SNOW (liq.equ) -- -- -- -- -- 0.00in -- -- -- -- -- 0.08in -- -- -- -- --
SNOWFALL -- -- -- -- -- 0in -- -- -- -- -- 0in -- -- -- -- --
WIND SPEED(MPH) 5 5 5 5 6 6 6 6 7 7 8 7 7 7 7 6 6
WIND Gust(MPH) 6 6 6 6 7 7 7 7 7 8 9 9 13 9 10 8 7
WIND DIR S S S S S S S S S S S S S S S S S
DEW Frost Frost Frost Frost Frost -- -- -- -- -- -- -- -- -- -- -- --
HeatIndex 32 31 31 32 32 33 34 35 36 36 38 40 47 47 47 47 41
Snow Showers -- -- -- -- -- -- -- -- -- -- -- -- -- -- -- -- --
Rain Showers -- -- -- -- -- Slight Chance Chance Chance Likely Likely Likely Likely Likely Likely Likely Chance Chance
WIND CHILL 32° 30° 30° 32° 31° 34° 34° 36° 35° 36° 38° 41° -- -- -- -- 42°
SPRAY COND
DRY COND
LIVESTOCK COLDSTRESS



DAY MONDAY TUESDAY WEDNESDAY THURSDAY FRIDAY SATURDAY
CDT 6HR 7P 8P 9P 10P 11P MIDN 1A 2A 3A 4A 5A 6A 7A 8A 9A 10A 11A NOON 1P 4P 7P 10P 1A 4A 7A 10A 1P 4P 7P 1A 7A 1P 7P 1A 7A 1P 7P 1A 7A 1P 7P 1A 7A 1P 7P
MAX/MIN -- -- -- -- -- -- -- -- -- -- -- -- 41° -- -- -- -- -- -- 56° -- -- -- -- 45° -- -- 58° -- -- 38° 52° -- -- 36° 58° -- -- 41° 52° -- -- 31° 41° --
TEMP 43° 43° 43° 41° 41° 41° 41° 43° 43° 43° 43° 41° 41° 43° 47° 49° 50° 52° 54° 56° 50° 49° 47° 45° 45° 50° 56° 58° 52° 45° 38° 49° 43° 38° 38° 54° 49° 45° 43° 52° 43° 38° 31° 40° 36°
SKY COVER 100% 98% 95% 93% 91% 88% 86% 86% 85% 85% 84% 84% 83% 82% 80% 79% 78% 76% 75% 69% 63% 53% 43% 61% 79% 75% 71% 64% 56% 55% 61% 59% 40% 36% 37% 40% 46% 66% 95% 93% 90% 86% 87% 85% 92%
Clouds
DEW PT 40° 40° 40° 40° 40° 40° 40° 40° 40° 40° 40° 41° 41° 43° 43° 43° 43° 45° 45° 45° 43° 43° 43° 43° 43° 45° 47° 43° 45° 40° 34° 34° 31° 32° 34° 41° 43° 41° 41° 40° 34° 31° 29° 29° 25°
RH 86% 89% 89% 92% 92% 96% 96% 92% 92% 92% 92% 99% 99% 95% 85% 82% 77% 77% 71% 66% 76% 79% 82% 92% 96% 80% 69% 55% 74% 82% 85% 53% 62% 79% 85% 61% 79% 88% 96% 65% 67% 75% 88% 64% 64%
POP 12HR 65% -- -- -- -- -- -- -- -- -- -- -- 11% -- -- -- -- -- -- -- 8% -- -- -- 6% -- -- -- 19% -- 19% -- 45% -- 10% -- 3% -- 25% -- 40% -- 50% -- 54%
RAIN/SNOW (liq.equ) 0.02in -- -- -- -- -- 0.00in -- -- -- -- -- 0.00in -- -- -- -- -- 0.00in -- 0.00in -- 0.00in -- 0.00in -- 0.00in -- 0.00in -- -- -- -- -- -- -- -- -- -- -- -- -- -- -- --
SNOWFALL 0in -- -- -- -- -- 0in -- -- -- -- -- 0in -- -- -- -- -- 0in -- 0in -- 0in -- 0in -- 0in -- 0in -- -- -- -- -- -- -- -- -- -- -- -- -- -- -- --
WIND SPEED(MPH) 6 6 6 6 6 5 5 5 5 5 5 2 2 2 5 6 7 7 7 7 6 6 6 6 5 6 7 7 5 2 6 8 6 5 2 7 7 8 8 9 8 7 7 7 6
WIND DIR S S S S S S S S S S S S S S SW SW SW SW SW SW SW SW SW SW SW W SW W W N NE NE NE E E S S S SW W NW NE N N N
HeatIndex 40 39 39 38 38 39 39 40 40 40 40 40 40 42 47 49 50 52 54 56 50 49 47 45 42 50 56 58 52 43 34 49 40 35 35 54 49 40 37 52 38 32 25 35 32
Snow Showers -- -- -- -- -- -- -- -- -- -- -- -- -- -- -- -- -- -- -- -- -- -- -- -- -- -- -- -- -- -- -- -- -- -- -- -- -- -- -- -- -- -- Chance -- Chance
Rain Showers -- -- -- -- -- -- -- -- -- -- -- -- -- -- -- -- -- -- -- -- -- -- -- -- -- -- Slight Chance Slight Chance Slight Chance Slight Chance Chance Chance -- -- -- -- -- Chance Chance Chance Chance Chance -- Chance Chance
WIND CHILL 39° 39° 39° 37° 37° 38° 38° 40° 40° 40° 40° -- -- -- -- -- -- -- -- -- -- -- -- 42° 43° -- -- -- -- -- 34° -- 39° 35° -- -- -- 41° 38° -- 38° 33° 25° 35° 31°
SPRAY COND
DRY COND
LIVESTOCK COLDSTRESS

Click on individual weather variable above in left-hand column (ie., TEMP, RH, QPF 12HR) to view state forecast maps






NWS 48 Hr. Forecast Maps,

Regional Hourly Observations For ALLEN County, Kentucky
Issued at 100 AM EST SUN DEC 17 2017
WESTERN AND SOUTH CENTRAL KENTUCKY
  
CITY           SKY/WX    TMP DP  RH WIND       PRES   REMARKS
PADUCAH        CLOUDY    42  29  59 S6        30.15F                  
HENDERSON      CLOUDY    40  31  70 S8        30.17S WCI  34          
OWENSBORO      PTCLDY    38  30  73 S5        30.19F WCI  34          
HOPKINSVILLE   PTCLDY    43  28  56 S6        30.19F                  
BOWLING GREEN  PTCLDY    41  31  67 S3        30.22F                  
GLASGOW        CLOUDY    41  30  65 S3        30.21F                  


Current NOWCAST not available:
Nowcasts are not issued routinely during fair weather. Only when
precipitation or other significant weather is occuring in this county will these
forecasts be issued. Currently, there is no short term forecast in effect.


Fire Weather Forecast For ALLEN County, KY
Provided by the National Weather Service:

Issued at: Sun Dec 17 01:05:01 EST 2017

319 AM EST Sat Dec 16 2017 /219 AM CST Sat Dec 16 2017/

                      Today        Tonight      Sun          

CLOUD COVER           MClear       PCldy        Cloudy       
PRECIP TYPE           NONE         NONE         showers      
CHANCE PRECIP (%)     0            0            80           
TEMP (24H TREND)      53 (+14)     34 (+5)      46           
RH % (24H TREND)      42 (-8)      84 (+1)      70           
20FTWND-VAL/AM(MPH)   SW  9 G19                 S  5         
20FTWND-RDG/PM(MPH)   SW 10 G19    S  5         S  5         
PRECIP AMOUNT         0.00         0.00         0.12         
MIXING HGT(FT-AGL/MSL)3049                      2123         
TRANSPORT WND (MPH)   SW 22                     S 22         
VENT RATE (KT-FT)     60840                     40337        
DISPERSION            Good                      Fair         
DSI                   STBL         STBL         STBL         
LAL                   1            1            1            
HAINES INDEX          4            4            3            
ADI EARLY             39 FAIR      5 VERY POOR  27 FAIR      
ADI LATE              50 GEN GOOD  6 VERY POOR  34 FAIR      
MAX LVORI EARLY       4            4            4            
MAX LVORI LATE        3            5            4            

REMARKS...ADI IS ATMOSPHERIC DISPERSION INDEX BY LAVDAS.        
LVORI IS LOW VISIBILITY OCCURRENCE RISK INDEX.

.MONDAY...Mostly cloudy. Lows around 40. Highs in the mid 50s.
South winds around 5 mph. 
.TUESDAY...Mostly cloudy. Lows in the mid 40s. Highs in the upper
50s. Southwest winds around 5 mph. 
.WEDNESDAY...Partly cloudy. Lows in the upper 30s. Highs in the
lower 50s. East winds up to 5 mph. 
.THURSDAY...Partly cloudy. Lows in the mid 30s. Highs in the mid
50s. South winds up to 10 mph. 
.FRIDAY...Mostly cloudy with a 50 percent chance of rain showers.
Lows around 40. Highs in the lower 50s. Northwest winds 5 to
10 mph. 

SPC's Fire Weather Web Tool (Excellent!), SPC's Fire Weather Outlooks, NWS Fire Weather WEB, Fire Danger Class Map,
Keetch-Byram Drought Index, ROMAN Web, Haines Index ,
WFAS's 10-hr Dead Fuel Moist., WFAS's 100-hr Dead Fuel Moist., Probablity of Ignition, Visual blackness Map, Palmer Drought Index, HPC's Rainfall Forecast Maps


Hazardous Weather Outlook For ALLEN County, Kentucky
352 PM EST Sat Dec 16 2017 /252 PM CST Sat Dec 16 2017/

 DAY ONE  This Afternoon and Tonight

No hazardous weather is expected at this time.

 DAYS TWO THROUGH SEVEN  Sunday through Friday

The chance for a rain-snow mix is in the forecast for Friday night
into Saturday, but at this time, confidence on the exact timing
and location of any snow remains low. If you plan to travel over
the holiday weekend, stay tuned for later forecasts highlighting
the potential for active winter weather. 

 SPOTTER INFORMATION STATEMENT  

Spotter activation will not be needed.

Latest ALLEN County, Kentucky Watches, Warnings and Advisories.
Additional Drought Info.: UKAWC Drought Page, Kentucky Drought Watch


7-Day Forecast For ALLEN County, KY

OVERNIGHT
Partly cloudy. Lows in the mid 30s. South winds up to 5 mph.

SUNDAY
Rain showers likely. Highs in the upper 40s. South winds 5 to 10 mph. Chance of showers 70 percent.

SUNDAY NIGHT
Cloudy. Lows in the lower 40s. South winds around 5 mph.

MONDAY
Mostly cloudy. Highs in the upper 50s. Southwest winds 5 to 10 mph.

MONDAY NIGHT
Partly cloudy. Lows in the mid 40s. Southwest winds 5 to 10 mph.

TUESDAY
Partly cloudy with a 20 percent chance of showers. Highs around 60.

TUESDAY NIGHT
Partly cloudy with a 20 percent chance of rain showers. Lows in the upper 30s.

WEDNESDAY
Partly cloudy with a 50 percent chance of rain showers. Highs in the lower 50s.

WEDNESDAY NIGHT
Partly cloudy. Lows in the upper 30s.

THURSDAY
Partly cloudy. Highs in the upper 50s.

THURSDAY NIGHT
Partly cloudy with a 30 percent chance of showers. Lows in the lower 40s.

FRIDAY
Cloudy with a 40 percent chance of showers. Highs in the lower 50s.

FRIDAY NIGHT
Mostly cloudy with a 50 percent chance of rain showers possibly mixed with snow showers. Lows in the lower 30s.

SATURDAY
Mostly cloudy with a 50 percent chance of rain showers possibly mixed with snow showers. Highs in the lower 40s.

Ag Weather Center, Department of Biosystems & Agricultural Engineering, University of Kentucky